Upper Falls, MD (21156)

7:16 AM EST on December 26, 2014 (GMT -0500)
Rumsey Island Joppa, MD | Change Station
CLOSE
Current Station
Personal Weather Station
Location: Joppa, MD
Elevation: 16 ft
Nearby Weather Stations

Elev 16 ft 39.41 °N, 76.36 °W | Updated 14 minutes ago

Clear
Clear
31.7 °F
Feels Like 32 °F
N
0.0
Wind Variable Wind from ESE

Today
High -- | Low -- °F
--% Chance of Precip.
Yesterday
High -- | Low -- °F
Precip. -- in
7:24 AM 4:48 PM
Waxing Crescent, 25% visible
Pressure 30.30 in
Visibility 10.0 miles
Clouds Clear
Windchill 32 °F
Dew Point 31 °F
Humidity 97%
Rainfall 0.00 in
Snow Depth Not available.
UV 0 out of 12
Pollen .10 out of 12
Air Quality Not available.
Flu Activity Not available.
METAR KMTN 261150Z 00000KT 10SM SKC 00/M01 A3030

More Conditions Fewer Conditions

Pressure 30.30 in
Visibility 10.0 miles
Clouds Clear
Windchill 32 °F
Dew Point 31 °F
Humidity 97%
Rainfall 0.00 in
Snow Depth Not available.
UV 0 out of 12
Pollen .10 out of 12
Air Quality Not available.
Flu Activity Not available.
METAR KMTN 261150Z 00000KT 10SM SKC 00/M01 A3030

More Conditions Fewer Conditions

10-Day Weather Forecast

Almanac

Astronomy

Dec. 26, 2014 Rise Set
Actual Time
Civil Twilight
Nautical Twilight
Astronomical Twilight
Moon
Length of Visible Light
Length of Day
Tomorrow will be .
, % of the Moon is Illuminated

Today's Extremes

State Highs State Lows

Community

WunderPhotos

Upload Photos

1,780,584 photos uploaded!

WunderBlogs® & News

Nearby

Air Quality

  Air Quality AQ Index Pollutant
Not available.

Snow Depth

Station Depth Elevation

Earthquake Activity

City Distance Mag. Time & Date
Minimum magnitude displayed is 2.5.

Coastal Water Temperatures

Place Temperature

Nearby Weather Stations